This is the latest recevied weather packets stored in our database for station/object WB6ANP. If no packets are shown the sender has not sent any weather packets the latest 10 day(s).
| Time | Temp. | Humidity | Pressure | Rain* | Wind** | Luminosity | Snow |
|---|---|---|---|---|---|---|---|
| 1778020565 | 27.22° C | 53% | 1005.1 hPa | 0 mm | - | 547 W/m² | - |
| 1778020261 | 27.22° C | 53% | 1004.8 hPa | 0 mm | - | 344 W/m² | - |
| 1778019958 | 27.78° C | 53% | 1004.6 hPa | 0 mm | - | 208 W/m² | - |
| 1778019654 | 28.33° C | 53% | 1004.5 hPa | 0 mm | - | 545 W/m² | - |
| 1778019351 | 28.89° C | 51% | 1004.6 hPa | 0 mm | - | 388 W/m² | - |
| 1778019047 | 28.89° C | 51% | 1004.7 hPa | 0 mm | - | 394 W/m² | - |
| 1778018745 | 28.89° C | 51% | 1004.4 hPa | 0 mm | - | 561 W/m² | - |
| 1778018443 | 28.89° C | 49% | 1004.4 hPa | 0 mm | - | 263 W/m² | - |
| 1778018141 | 29.44° C | 48% | 1004.4 hPa | 0 mm | - | 281 W/m² | - |
| 1778017838 | 30° C | 44% | 1004.6 hPa | 0 mm | - | 285 W/m² | - |
| 1778017536 | 30.56° C | 42% | 1004.6 hPa | 0 mm | - | 569 W/m² | - |
| 1778017233 | 31.67° C | 41% | 1004.5 hPa | 0 mm | - | 588 W/m² | - |
| 1778016931 | 31.11° C | 40% | 1004.3 hPa | 0 mm | - | 701 W/m² | - |
| 1778016626 | 31.11° C | 39% | 1004.6 hPa | 0 mm | - | 624 W/m² | - |
| 1778016323 | 31.11° C | 38% | 1004.7 hPa | 0 mm | - | 683 W/m² | - |
| 1778016020 | 31.11° C | 40% | 1004.6 hPa | 0 mm | - | 751 W/m² | - |
| 1778015718 | 31.67° C | 38% | 1004.7 hPa | 0 mm | - | 658 W/m² | - |
| 1778015414 | 31.67° C | 38% | 1004.5 hPa | 0 mm | - | 771 W/m² | - |
| 1778015111 | 31.67° C | 41% | 1004.8 hPa | 0 mm | - | 720 W/m² | - |
| 1778014808 | 31.67° C | 40% | 1004.6 hPa | 0 mm | - | 726 W/m² | - |
| 1778014506 | 31.11° C | 42% | 1004.3 hPa | 0 mm | - | 709 W/m² | - |
| 1778014203 | 31.67° C | 41% | 1004.7 hPa | 0 mm | - | 666 W/m² | - |
| 1778013901 | 31.67° C | 44% | 1004.4 hPa | 0 mm | - | 739 W/m² | - |
| 1778013597 | 31.11° C | 42% | 1004.6 hPa | 0 mm | - | 641 W/m² | - |
| 1778013294 | 31.67° C | 42% | 1004.8 hPa | 0 mm | - | 603 W/m² | - |
* Rain latest hour (hover to see other rain measurements)
** Current wind speed in m/s (hover to see current wind gust speed)